Time,TemperatureF,DewpointF,PressureIn,WindDirection,WindDirectionDegrees,WindSpeedMPH,WindSpeedGustMPH,Humidity,HourlyPrecipIn,Conditions,Clouds,dailyrainin,SoftwareType,DateUTC
2013-04-08 00:08:00,65.8,58.7,29.90,ESE,112,0.0,-999.0,78,-99.99,,,0.00,Acu-Link.com,2013-04-08 04:08:00,
2013-04-08 00:23:00,64.4,58.1,29.90,ESE,112,0.0,-999.0,80,-99.99,,,0.00,Acu-Link.com,2013-04-08 04:23:00,
2013-04-08 01:09:00,62.6,58.0,29.90,East,90,0.0,-999.0,85,-99.99,,,0.00,Acu-Link.com,2013-04-08 05:09:00,
2013-04-08 01:24:00,62.2,58.3,29.90,WNW,292,1.1,-999.0,87,-99.99,,,0.00,Acu-Link.com,2013-04-08 05:24:00,
2013-04-08 01:40:00,62.2,58.3,29.89,WSW,247,0.0,-999.0,87,-99.99,,,0.00,Acu-Link.com,2013-04-08 05:40:00,
2013-04-08 01:55:00,62.2,58.3,29.89,SE,135,0.0,-999.0,87,-99.99,,,0.00,Acu-Link.com,2013-04-08 05:55:00,
2013-04-08 02:10:00,62.2,58.3,29.89,NW,315,0.0,-999.0,87,-99.99,,,0.00,Acu-Link.com,2013-04-08 06:10:00,
2013-04-08 02:25:00,62.2,58.6,29.89,SSE,157,0.0,-999.0,88,-99.99,,,0.00,Acu-Link.com,2013-04-08 06:25:00,
2013-04-08 02:41:00,62.2,58.6,29.88,SSE,157,0.0,-999.0,88,-99.99,,,0.00,Acu-Link.com,2013-04-08 06:41:00,
2013-04-08 02:56:00,62.4,58.8,29.88,SE,135,0.0,-999.0,88,-99.99,,,0.00,Acu-Link.com,2013-04-08 06:56:00,
2013-04-08 03:11:00,62.2,58.6,29.87,SE,135,0.0,-999.0,88,-99.99,,,0.00,Acu-Link.com,2013-04-08 07:11:00,
2013-04-08 03:27:00,62.1,58.8,29.87,SE,135,0.0,-999.0,89,-99.99,,,0.00,Acu-Link.com,2013-04-08 07:27:00,
2013-04-08 03:42:00,62.1,58.8,29.87,SE,135,0.0,-999.0,89,-99.99,,,0.00,Acu-Link.com,2013-04-08 07:42:00,
2013-04-08 03:57:00,62.1,59.1,29.87,SE,135,0.0,-999.0,90,-99.99,,,0.00,Acu-Link.com,2013-04-08 07:57:00,
2013-04-08 04:14:00,62.2,59.2,29.87,ESE,112,0.0,-999.0,90,-99.99,,,0.00,Acu-Link.com,2013-04-08 08:14:00,
2013-04-08 04:44:00,62.8,59.8,29.86,SE,135,0.0,-999.0,90,-99.99,,,0.00,Acu-Link.com,2013-04-08 08:44:00,
2013-04-08 05:14:00,61.9,59.5,29.86,SE,135,0.0,-999.0,92,-99.99,,,0.00,Acu-Link.com,2013-04-08 09:14:00,
2013-04-08 05:30:00,61.9,59.9,29.86,West,270,0.0,-999.0,93,-99.99,,,0.00,Acu-Link.com,2013-04-08 09:30:00,
2013-04-08 05:45:00,61.5,59.8,29.87,South,180,0.0,-999.0,94,-99.99,,,0.00,Acu-Link.com,2013-04-08 09:45:00,
2013-04-08 06:00:00,61.0,59.0,29.87,East,90,0.0,-999.0,93,-99.99,,,0.00,Acu-Link.com,2013-04-08 10:00:00,
2013-04-08 06:15:00,60.4,58.7,29.88,SE,135,0.0,-999.0,94,-99.99,,,0.00,Acu-Link.com,2013-04-08 10:15:00,
2013-04-08 06:30:00,60.1,58.1,29.89,East,90,0.0,-999.0,93,-99.99,,,0.00,Acu-Link.com,2013-04-08 10:30:00,
2013-04-08 06:46:00,60.1,58.4,29.90,East,90,0.0,-999.0,94,-99.99,,,0.00,Acu-Link.com,2013-04-08 10:46:00,
2013-04-08 07:16:00,59.5,58.1,29.91,East,90,0.0,-999.0,95,-99.99,,,0.00,Acu-Link.com,2013-04-08 11:16:00,
2013-04-08 07:32:00,59.5,58.1,29.91,East,90,0.0,-999.0,95,-99.99,,,0.00,Acu-Link.com,2013-04-08 11:32:00,
2013-04-08 07:47:00,60.1,58.7,29.92,South,180,0.0,-999.0,95,-99.99,,,0.00,Acu-Link.com,2013-04-08 11:47:00,
2013-04-08 08:02:00,63.5,61.4,29.92,SSE,157,0.0,-999.0,93,-99.99,,,0.00,Acu-Link.com,2013-04-08 12:02:00,
2013-04-08 08:17:00,67.3,63.3,29.92,ESE,112,2.2,-999.0,87,-99.99,,,0.00,Acu-Link.com,2013-04-08 12:17:00,
2013-04-08 08:33:00,71.4,64.9,29.93,SE,135,1.7,-999.0,80,-99.99,,,0.00,Acu-Link.com,2013-04-08 12:33:00,
2013-04-08 08:48:00,72.1,65.2,29.94,SE,135,3.7,-999.0,79,-99.99,,,0.00,Acu-Link.com,2013-04-08 12:48:00,
2013-04-08 09:03:00,75.4,66.1,29.94,SSE,157,2.2,-999.0,73,-99.99,,,0.00,Acu-Link.com,2013-04-08 13:03:00,
2013-04-08 09:18:00,75.7,65.2,29.94,SSE,157,2.2,-999.0,70,-99.99,,,0.00,Acu-Link.com,2013-04-08 13:18:00,
2013-04-08 09:49:00,76.6,64.4,29.94,ESE,112,1.7,-999.0,66,-99.99,,,0.00,Acu-Link.com,2013-04-08 13:49:00,
2013-04-08 10:04:00,77.4,63.3,29.94,ESE,112,2.7,-999.0,62,-99.99,,,0.00,Acu-Link.com,2013-04-08 14:04:00,
2013-04-08 10:20:00,79.5,63.9,29.95,ENE,67,3.7,-999.0,59,-99.99,,,0.00,Acu-Link.com,2013-04-08 14:20:00,
2013-04-08 10:35:00,80.1,60.9,29.93,North,0,3.2,-999.0,52,-99.99,,,0.00,Acu-Link.com,2013-04-08 14:35:00,
2013-04-08 10:50:00,81.1,62.3,29.92,SSW,202,4.2,-999.0,53,-99.99,,,0.00,Acu-Link.com,2013-04-08 14:50:00,
2013-04-08 11:05:00,81.9,61.4,29.92,SSE,157,2.2,-999.0,50,-99.99,,,0.00,Acu-Link.com,2013-04-08 15:05:00,
2013-04-08 11:20:00,81.9,60.8,29.92,SSW,202,3.7,-999.0,49,-99.99,,,0.00,Acu-Link.com,2013-04-08 15:20:00,
2013-04-08 11:36:00,81.9,59.7,29.91,East,90,2.7,-999.0,47,-99.99,,,0.00,Acu-Link.com,2013-04-08 15:36:00,
2013-04-08 11:51:00,83.8,59.5,29.91,SSE,157,3.2,-999.0,44,-99.99,,,0.00,Acu-Link.com,2013-04-08 15:51:00,
2013-04-08 12:06:00,84.0,57.7,29.92,SE,135,3.2,-999.0,41,-99.99,,,0.00,Acu-Link.com,2013-04-08 16:06:00,
2013-04-08 12:37:00,83.5,56.6,29.91,ESE,112,3.2,-999.0,40,-99.99,,,0.00,Acu-Link.com,2013-04-08 16:37:00,
2013-04-08 12:52:00,85.3,58.2,29.91,ESE,112,3.7,-999.0,40,-99.99,,,0.00,Acu-Link.com,2013-04-08 16:52:00,
2013-04-08 13:07:00,84.4,56.7,29.91,ESE,112,3.2,-999.0,39,-99.99,,,0.00,Acu-Link.com,2013-04-08 17:07:00,
2013-04-08 13:22:00,84.4,57.4,29.90,South,180,4.2,-999.0,40,-99.99,,,0.00,Acu-Link.com,2013-04-08 17:22:00,
2013-04-08 13:38:00,84.7,59.0,29.89,SSE,157,6.8,-999.0,42,-99.99,,,0.00,Acu-Link.com,2013-04-08 17:38:00,
2013-04-08 13:53:00,84.6,58.9,29.89,ESE,112,3.2,-999.0,42,-99.99,,,0.00,Acu-Link.com,2013-04-08 17:53:00,
2013-04-08 14:24:00,83.8,60.2,29.87,ESE,112,6.3,-999.0,45,-99.99,,,0.00,Acu-Link.com,2013-04-08 18:24:00,
2013-04-08 14:54:00,84.0,59.1,29.85,North,0,7.3,-999.0,43,-99.99,,,0.00,Acu-Link.com,2013-04-08 18:54:00,
2013-04-08 15:10:00,85.6,59.8,29.85,NNE,22,3.7,-999.0,42,-99.99,,,0.00,Acu-Link.com,2013-04-08 19:10:00,
2013-04-08 15:25:00,84.0,58.4,29.84,ESE,112,2.2,-999.0,42,-99.99,,,0.00,Acu-Link.com,2013-04-08 19:25:00,
2013-04-08 15:40:00,83.8,58.9,29.82,NE,45,3.2,-999.0,43,-99.99,,,0.00,Acu-Link.com,2013-04-08 19:40:00,
2013-04-08 15:55:00,84.9,59.2,29.81,SSW,202,2.7,-999.0,42,-99.99,,,0.00,Acu-Link.com,2013-04-08 19:55:00,
2013-04-08 16:11:00,84.4,58.8,29.80,SSE,157,5.8,-999.0,42,-99.99,,,0.00,Acu-Link.com,2013-04-08 20:11:00,
2013-04-08 16:26:00,84.0,59.1,29.80,ESE,112,4.2,-999.0,43,-99.99,,,0.00,Acu-Link.com,2013-04-08 20:26:00,
2013-04-08 16:41:00,82.8,59.3,29.80,South,180,2.7,-999.0,45,-99.99,,,0.00,Acu-Link.com,2013-04-08 20:41:00,
2013-04-08 17:12:00,84.7,61.6,29.81,West,270,2.2,-999.0,46,-99.99,,,0.00,Acu-Link.com,2013-04-08 21:12:00,
2013-04-08 17:27:00,83.3,61.5,29.81,ESE,112,1.7,-999.0,48,-99.99,,,0.00,Acu-Link.com,2013-04-08 21:27:00,
2013-04-08 17:42:00,84.7,61.6,29.81,ESE,112,2.7,-999.0,46,-99.99,,,0.00,Acu-Link.com,2013-04-08 21:42:00,
2013-04-08 17:58:00,83.8,62.0,29.80,East,90,1.1,-999.0,48,-99.99,,,0.00,Acu-Link.com,2013-04-08 21:58:00,
2013-04-08 18:13:00,82.9,61.2,29.81,NNE,22,2.7,-999.0,48,-99.99,,,0.00,Acu-Link.com,2013-04-08 22:13:00,
2013-04-08 18:29:00,84.0,60.3,29.81,NE,45,2.2,-999.0,45,-99.99,,,0.00,Acu-Link.com,2013-04-08 22:29:00,
2013-04-08 18:44:00,82.0,60.3,29.81,South,180,3.2,-999.0,48,-99.99,,,0.00,Acu-Link.com,2013-04-08 22:44:00,
2013-04-08 19:14:00,79.5,61.9,29.82,West,270,2.2,-999.0,55,-99.99,,,0.00,Acu-Link.com,2013-04-08 23:14:00,
2013-04-08 19:30:00,78.1,61.6,29.82,South,180,1.7,-999.0,57,-99.99,,,0.00,Acu-Link.com,2013-04-08 23:30:00,
2013-04-08 19:45:00,77.0,61.1,29.83,NNE,22,1.1,-999.0,58,-99.99,,,0.00,Acu-Link.com,2013-04-08 23:45:00,
2013-04-08 20:00:00,75.7,60.8,29.83,East,90,2.2,-999.0,60,-99.99,,,0.00,Acu-Link.com,2013-04-09 00:00:00,
2013-04-08 20:15:00,75.2,60.8,29.83,ESE,112,2.2,-999.0,61,-99.99,,,0.00,Acu-Link.com,2013-04-09 00:15:00,
2013-04-08 20:31:00,73.9,60.5,29.83,WNW,292,0.0,-999.0,63,-99.99,,,0.00,Acu-Link.com,2013-04-09 00:31:00,
2013-04-08 20:46:00,73.6,60.2,29.85,SW,225,1.1,-999.0,63,-99.99,,,0.00,Acu-Link.com,2013-04-09 00:46:00,
2013-04-08 21:32:00,71.6,59.6,29.86,SW,225,1.7,-999.0,66,-99.99,,,0.00,Acu-Link.com,2013-04-09 01:32:00,
2013-04-08 21:47:00,71.4,60.3,29.87,SSE,157,1.7,-999.0,68,-99.99,,,0.00,Acu-Link.com,2013-04-09 01:47:00,
2013-04-08 22:17:00,70.0,60.5,29.88,ESE,112,2.2,-999.0,72,-99.99,,,0.00,Acu-Link.com,2013-04-09 02:17:00,
2013-04-08 22:32:00,69.3,60.6,29.89,ESE,112,1.1,-999.0,74,-99.99,,,0.00,Acu-Link.com,2013-04-09 02:32:00,
2013-04-08 22:47:00,69.1,60.5,29.89,NNE,22,2.2,-999.0,74,-99.99,,,0.00,Acu-Link.com,2013-04-09 02:47:00,
2013-04-08 23:03:00,68.7,60.4,29.89,SSE,157,1.7,-999.0,75,-99.99,,,0.00,Acu-Link.com,2013-04-09 03:03:00,
2013-04-08 23:18:00,68.4,60.5,29.89,South,180,1.1,-999.0,76,-99.99,,,0.00,Acu-Link.com,2013-04-09 03:18:00,
2013-04-08 23:49:00,66.9,59.8,29.90,NNE,22,1.7,-999.0,78,-99.99,,,0.00,Acu-Link.com,2013-04-09 03:49:00,